Torna al catalogo

STARLINK-30961

AttivoComunicazioniVLEO
NORAD 58445·PAYLOAD·🇺🇸 United States

Lanciato Nov 28, 2023 da Cape Canaveral Space Force Station

Loading…

Prossimi Passaggi (prossime 24 ore)

TLE

AggiornatoSource: CelesTrak SupGP

Epoca: Sep 14, 2026, 22:42 UTC

1 58445C 23183J   26257.94631944  .00045439  00000+0  16458-2 0  2572
2 58445  43.0035  52.6092 0001702 272.4049 346.0024 15.27556515    17

Traccia STARLINK-30961 in tempo reale con AllMySat

Download on the App Store